Wind_Speed
17 15 13 12 11 11 10 10 10 9 8 6 5 3 1 0 1 2 3 5 6 7 8 9 10 12 13 14 15 16 17 18 18 19 19 19 19 19 18 18 18 17 17 17 17 18 19 19 20 21 22 23 24 24 25 25 26 26 26 26 26 25 25 24 24 23 23 23 23
16 14 13 12 12 12 12 11 10 9 8 6 4 3 2 0 1 3 4 5 6 7 8 10 11 12 13 15 16 17 17 18 19 19 19 19 19 19 18 18 18 17 17 18 18 19 19 20 21 22 23 24 25 25 25 26 26 26 26 26 25 25 24 24 24 23 23 24 24
15 14 13 13 13 13 12 11 10 9 7 6 4 3 2 1 2 3 4 6 7 8 9 10 11 13 14 15 16 17 18 19 19 19 19 19 19 19 18 18 17 17 18 18 19 19 20 21 22 23 24 25 25 26 26 25 25 25 25 25 25 24 24 24 24 24 24 24 25
16 15 14 14 14 13 12 11 10 9 7 6 4 3 2 2 3 4 5 6 7 8 9 10 12 13 14 15 17 18 19 19 19 19 19 19 19 18 18 18 18 18 18 19 20 20 21 22 23 24 24 25 25 25 25 25 25 24 24 24 24 24 24 24 24 24 25 25 25
16 16 15 15 14 13 12 11 10 9 7 5 4 2 2 3 4 5 6 7 8 9 10 11 12 13 15 16 17 18 19 19 19 19 19 19 18 18 18 18 18 18 19 20 20 21 22 23 23 24 24 24 24 24 24 24 24 24 24 24 24 24 24 24 25 25 25 26 26
17 16 16 15 14 14 13 11 10 9 7 5 3 2 2 3 4 5 6 7 8 9 10 11 12 14 15 17 18 19 19 19 19 19 19 18 18 18 18 18 18 19 20 20 21 22 23 23 23 23 23 23 23 23 23 23 23 24 24 24 24 24 25 25 25 26 26 26 26
17 17 16 16 15 14 13 11 10 8 6 4 3 2 3 4 5 6 7 8 9 9 10 12 13 14 16 17 18 19 19 19 19 19 19 18 18 18 18 18 19 20 20 21 22 22 23 23 23 23 23 23 23 23 23 23 23 24 24 25 25 25 25 25 26 26 26 26 27
17 17 17 16 15 14 13 11 10 8 6 4 3 3 4 5 6 6 7 8 9 10 11 12 13 15 16 18 19 19 19 19 19 18 18 18 18 18 18 19 20 20 21 22 22 22 22 22 22 22 22 22 22 23 23 23 24 24 25 25 26 26 26 26 26 26 26 27 27
18 18 17 16 15 14 12 11 9 7 5 3 3 3 4 5 6 7 8 8 9 10 12 13 14 16 17 18 19 19 19 18 18 18 18 18 18 18 19 20 20 21 21 22 22 22 22 22 22 22 22 22 22 23 23 24 24 25 25 26 26 26 26 26 26 26 26 27 28
18 18 18 17 15 14 12 10 8 6 4 3 3 4 5 6 7 7 8 9 10 11 12 13 15 16 18 18 19 19 18 18 18 18 18 18 18 19 20 21 21 22 22 21 21 21 21 21 21 21 22 22 23 23 24 24 25 25 26 26 27 27 27 26 26 26 27 27 28
18 18 17 16 15 13 11 9 7 6 4 4 4 5 6 7 7 8 9 10 10 11 12 14 15 17 18 18 18 18 18 18 17 18 18 18 19 20 20 21 21 21 21 21 21 21 21 21 22 22 22 23 23 24 25 25 26 26 26 27 27 27 27 27 26 27 27 28 29
19 18 17 16 14 12 11 9 7 5 5 4 5 6 7 7 8 9 9 10 11 12 13 14 16 17 17 18 18 18 17 17 17 18 18 19 20 20 21 21 21 21 21 21 21 21 21 22 22 23 23 24 24 25 25 26 26 26 27 27 27 27 27 27 27 27 28 29 30
19 18 16 15 13 12 10 8 7 5 5 5 6 6 7 8 9 9 10 11 11 12 13 15 16 16 17 17 17 17 17 17 17 18 19 19 20 21 21 21 21 20 20 20 21 21 21 22 23 24 24 25 25 25 25 26 26 26 27 27 27 27 27 27 28 28 29 30 30
18 17 16 14 13 11 9 8 6 6 5 6 6 7 8 9 9 10 10 11 12 13 14 15 16 16 17 17 17 17 17 17 18 18 19 20 20 21 21 20 20 20 20 20 21 21 22 23 23 24 25 25 26 26 26 26 26 26 26 26 27 27 28 28 28 29 29 30 31
18 17 15 14 12 11 9 7 6 6 6 6 7 8 8 9 10 10 11 11 12 13 14 15 15 16 16 16 16 16 17 17 18 19 20 20 20 20 20 20 20 20 21 21 21 22 22 23 24 25 25 26 26 26 26 26 25 25 26 26 26 27 28 28 29 29 30 31 32
18 17 15 14 12 10 9 7 6 6 7 7 8 8 9 10 10 11 11 11 12 13 14 15 15 16 16 16 16 16 17 18 18 19 20 20 20 20 20 20 20 21 21 22 22 23 23 24 24 25 25 26 26 26 26 26 25 25 25 25 26 27 27 28 29 30 30 31 32
18 16 15 13 12 10 9 8 7 7 7 8 8 9 9 10 11 11 11 12 12 13 14 15 15 15 15 16 16 16 17 18 19 19 20 20 20 20 20 20 20 21 22 22 23 24 24 24 25 25 25 26 26 26 25 25 25 25 25 25 26 27 27 28 29 30 31 32 33
17 16 14 13 11 10 9 8 7 7 8 8 9 9 10 11 11 11 12 12 12 13 14 14 15 15 15 15 16 17 18 18 19 19 20 20 20 20 20 20 21 21 22 23 24 24 25 25 25 25 26 26 25 25 25 25 25 25 25 26 26 27 28 29 29 30 31 32 33
17 16 14 12 11 10 9 8 8 8 8 9 9 10 10 11 11 11 12 12 12 13 13 14 14 14 15 15 16 17 18 18 19 19 19 19 19 19 20 21 21 22 23 23 24 25 25 26 26 26 26 26 26 25 25 25 25 25 25 26 27 27 28 29 30 30 31 32 33
16 15 13 12 10 9 9 8 8 8 9 9 9 10 11 11 11 11 12 12 12 13 13 13 13 14 15 15 16 17 18 18 19 19 19 19 19 20 20 21 22 23 23 24 24 25 26 26 26 26 26 26 26 25 25 25 25 25 26 26 27 28 29 29 30 31 32 32 33
16 14 13 12 10 9 9 9 9 9 9 9 10 11 11 11 11 11 11 12 12 12 12 13 13 14 15 16 17 17 18 18 18 19 19 19 19 20 21 22 22 23 24 24 25 25 26 26 26 26 26 26 25 25 25 25 26 26 27 27 28 28 29 30 30 31 32 32 33
15 14 13 11 10 9 9 9 9 9 9 10 10 11 11 11 11 11 11 11 12 12 12 13 13 14 15 16 17 17 18 18 18 18 18 19 19 20 21 22 23 24 24 25 25 26 26 27 27 26 26 26 25 25 25 26 26 27 27 28 28 29 29 30 30 31 31 32 32
15 14 13 11 10 10 9 9 9 9 10 10 10 10 10 10 10 11 11 11 11 11 12 13 14 14 15 16 17 17 18 18 18 18 18 19 20 21 21 22 23 24 25 25 26 26 27 27 27 26 25 25 25 25 25 26 27 27 28 29 29 29 30 30 30 31 31 31 31
15 14 12 11 10 10 10 9 9 10 10 10 10 10 10 10 10 10 10 10 11 11 12 13 14 15 15 16 17 17 18 18 18 19 19 19 20 21 22 23 24 24 25 25 26 26 26 26 26 26 25 25 25 25 26 26 27 28 28 29 30 30 30 30 30 31 31 31 30
15 13 12 11 10 10 10 9 10 10 10 10 10 9 9 9 9 9 10 10 11 11 12 13 14 15 15 16 17 17 18 18 19 19 20 20 21 22 23 23 24 24 25 25 25 26 25 25 25 24 24 24 25 25 26 27 27 28 28 29 29 30 30 31 30 30 30 30 29
14 13 12 11 10 10 10 10 10 10 10 10 9 9 8 8 9 9 9 10 11 11 12 13 14 15 15 16 17 17 18 18 19 20 21 22 22 23 23 24 24 25 25 25 25 25 25 25 24 23 23 24 25 26 27 27 27 28 28 29 29 30 30 30 30 30 29 28 28
13 12 11 11 10 10 10 10 11 10 10 9 8 8 8 8 9 9 9 10 10 11 12 13 14 15 16 16 17 17 18 19 19 20 21 22 23 23 24 24 24 25 25 25 25 25 25 25 24 24 23 24 24 25 27 27 28 28 28 28 29 29 29 29 30 29 29 28 27
12 11 11 10 10 10 10 11 11 10 9 9 8 8 8 8 9 9 9 10 11 11 12 13 14 15 16 17 17 18 19 19 20 21 22 22 23 23 24 24 24 25 25 25 25 25 25 25 25 24 24 24 24 25 26 27 27 28 28 28 28 28 28 28 28 28 27 27 26
12 11 10 10 10 10 11 11 10 9 9 8 8 8 8 8 9 9 9 10 11 12 13 14 15 16 16 17 18 19 19 20 21 21 22 23 23 23 24 24 24 25 25 25 25 26 25 25 25 24 24 24 24 25 25 26 27 27 27 27 27 27 27 27 26 26 26 26 27
11 10 10 10 10 11 11 10 9 9 8 8 7 8 8 8 9 9 9 10 11 12 13 14 15 16 17 17 18 19 20 20 21 22 23 23 23 24 24 24 24 25 25 25 26 26 25 25 25 25 24 24 24 24 25 25 26 26 26 26 26 26 26 25 26 26 26 27 28
10 10 10 10 10 10 10 10 9 8 8 7 7 7 8 8 9 9 10 10 11 13 14 15 16 16 17 18 19 20 21 21 22 22 23 23 24 24 24 24 24 25 25 26 26 26 25 25 25 25 24 24 24 24 24 25 25 25 25 25 25 25 25 25 25 25 26 27 28
10 10 10 10 10 10 10 9 8 8 7 7 7 7 8 9 9 9 10 11 12 13 14 15 16 17 18 19 20 21 21 22 22 23 23 23 24 24 24 24 24 25 25 26 26 26 26 26 25 25 24 24 24 24 24 24 24 24 24 24 24 24 24 24 25 26 27 28 28
10 10 10 10 10 10 9 9 8 7 7 7 7 8 8 9 9 10 10 11 12 14 15 16 17 18 19 20 21 22 22 22 23 23 23 23 23 24 24 24 24 25 25 25 25 26 26 26 25 25 24 24 24 24 24 23 23 23 23 23 23 23 23 24 25 26 27 28 28
10 10 10 10 10 10 9 8 7 7 6 7 7 8 8 9 9 10 11 12 13 14 15 17 18 19 20 21 21 22 23 23 23 23 23 23 23 24 24 24 24 25 25 25 25 26 26 26 25 25 24 24 24 24 24 23 23 22 22 22 22 23 23 24 25 26 26 26 27
10 10 10 10 10 9 8 7 7 6 6 7 8 8 9 9 10 11 12 13 14 15 16 17 18 19 20 21 22 22 23 23 23 23 23 23 24 24 24 24 24 25 25 25 25 26 26 26 25 25 24 24 24 24 24 23 22 22 22 22 23 23 24 25 25 25 25 25 26
10 10 10 10 9 8 8 7 6 6 7 7 8 8 9 10 10 11 12 13 14 15 16 18 19 20 21 21 22 23 23 23 23 23 23 23 24 24 25 25 24 25 25 25 25 26 26 26 25 25 24 24 25 24 24 23 22 22 22 23 23 24 24 25 24 24 24 25 26
10 10 9 9 8 8 7 7 6 7 7 8 8 9 9 10 11 12 13 14 15 16 17 18 19 20 21 22 22 23 23 23 23 24 23 23 24 24 25 25 25 25 25 25 25 26 26 26 25 24 24 25 25 25 25 24 23 22 22 23 23 23 23 24 24 24 25 26 27
10 9 9 8 8 7 7 7 7 7 7 8 9 9 10 11 12 13 14 15 16 17 18 19 20 21 22 23 23 23 23 23 23 23 23 23 23 24 25 25 25 25 25 25 26 26 26 26 25 24 24 24 25 25 25 24 23 23 22 23 23 23 23 23 24 25 27 28 28
9 9 8 8 8 7 7 7 7 7 8 8 9 10 10 11 12 13 14 16 17 18 19 20 21 22 22 23 23 24 23 23 23 23 23 23 23 23 24 25 25 25 25 25 26 26 26 26 25 24 23 24 24 25 25 24 23 23 22 23 23 24 24 24 25 27 29 29 29
8 8 8 8 8 7 7 7 7 8 8 9 9 10 11 12 13 14 15 16 17 19 20 21 21 22 23 23 23 24 24 24 23 22 22 23 23 23 24 24 25 25 26 26 26 27 26 25 24 24 23 23 24 24 24 24 23 23 22 23 24 25 26 26 27 29 30 30 30
8 8 8 8 8 7 7 7 8 8 9 9 10 10 11 12 13 14 16 17 18 19 20 21 22 22 23 23 24 24 24 24 23 23 23 23 23 23 24 25 25 26 26 26 27 27 27 25 24 23 23 23 23 24 23 23 23 23 23 24 25 26 28 29 30 30 30 29 30
Wind_Direction
194 196 198 200 201 201 200 197 195 195 195 195 194 190 179 111 1 350 346 344 341 337 335 335 336 337 337 336 335 333 331 330 328 326 325 323 322 321 321 320 320 320 320 319 319 319 319 319 319 319 319 319 319 319 318 318 318 318 318 318 318 318 318 318 317 317 316 315 314
194 196 198 200 202 203 202 200 198 196 196 196 195 196 196 222 334 336 338 337 335 333 333 334 335 335 334 333 332 330 328 326 325 323 322 321 320 320 319 319 319 318 318 318 318 318 318 318 318 319 318 318 318 318 318 318 318 318 318 318 318 318 317 317 317 316 315 314 314
195 197 200 202 204 204 203 202 200 199 198 197 200 204 216 267 322 332 333 332 331 331 331 332 333 333 332 330 328 327 325 324 322 321 320 320 319 319 318 318 317 317 317 317 317 317 318 318 318 319 319 318 318 318 318 318 318 318 318 317 318 317 317 316 316 315 314 314 314
197 200 202 204 205 205 204 204 204 204 204 204 209 216 243 292 319 328 328 327 327 329 330 331 330 330 329 328 326 324 323 321 320 320 319 318 318 317 317 317 316 316 316 316 317 317 318 318 319 319 319 319 318 318 318 318 318 317 317 317 317 317 316 315 315 314 314 313 314
199 203 205 206 206 206 206 207 208 209 210 212 219 235 273 305 319 324 325 325 326 327 328 328 328 327 326 325 324 322 321 320 319 318 318 317 317 316 316 315 315 315 315 316 316 317 318 318 319 319 319 319 318 318 318 317 317 316 316 316 316 315 315 314 314 314 313 313 314
202 204 206 207 207 207 207 209 212 213 214 219 230 257 293 311 318 322 323 323 323 324 325 326 326 325 324 323 322 320 319 318 318 317 317 316 316 315 315 315 314 315 315 316 317 318 318 319 319 319 319 318 318 318 317 317 316 315 315 315 315 314 314 314 313 314 314 314 314
205 206 207 207 207 208 210 212 214 215 219 226 245 278 302 312 318 319 319 320 321 321 322 323 323 323 322 321 320 319 318 317 316 316 315 315 315 314 314 314 314 315 316 317 318 318 319 319 319 319 318 318 317 317 316 316 315 315 314 314 314 314 314 314 314 314 315 315 316
206 207 207 208 209 210 213 215 216 218 222 235 259 290 305 310 313 315 315 316 317 318 319 320 321 321 320 320 319 318 317 316 316 315 315 314 314 314 314 314 315 316 317 318 319 319 319 319 319 319 318 317 317 316 316 316 315 315 314 314 314 315 315 315 315 316 316 316 317
205 207 208 209 210 212 214 216 218 220 227 244 271 290 299 305 307 309 310 311 313 315 317 318 319 320 319 319 318 317 316 316 315 315 314 314 314 314 314 315 317 318 319 320 320 320 320 320 319 318 318 317 316 316 316 316 315 315 315 315 315 315 315 316 317 317 318 318 318
207 208 210 211 213 214 216 217 219 222 232 249 269 284 292 298 302 304 306 308 311 313 315 316 318 319 319 318 317 317 316 315 315 314 314 314 314 315 316 317 319 320 321 321 321 321 320 319 319 318 317 317 317 317 317 316 316 316 316 316 316 316 316 317 318 319 320 320 319
210 211 212 214 215 216 218 218 220 224 235 251 268 280 289 295 298 301 304 306 309 311 313 315 317 317 317 317 316 316 315 315 315 314 314 315 316 317 318 320 321 321 322 322 321 321 320 319 318 317 317 317 317 317 317 317 317 317 317 317 317 317 318 318 320 321 321 321 320
213 214 214 215 217 218 219 220 223 230 243 259 272 283 289 294 297 300 303 305 307 309 312 314 315 316 316 316 316 315 314 314 314 315 315 316 317 319 320 321 322 322 322 322 322 321 320 319 318 318 318 318 318 318 319 319 319 318 318 318 318 318 319 320 322 322 322 322 320
214 215 216 216 217 219 221 224 229 240 255 269 279 287 291 295 298 300 302 303 306 309 311 313 314 315 315 314 314 314 314 314 314 315 316 317 319 320 321 322 322 323 322 322 322 321 320 320 319 319 319 319 319 320 320 320 319 319 319 319 319 320 321 322 323 323 322 321 320
215 216 216 217 218 220 223 228 237 249 265 277 285 290 293 296 298 300 302 303 306 308 311 312 314 314 314 314 313 313 314 314 315 316 318 319 321 322 322 323 323 323 322 322 322 322 321 320 320 320 320 320 320 320 320 320 320 320 320 320 321 321 322 322 323 323 322 320 319
215 215 216 217 218 221 225 232 243 258 273 283 289 293 296 297 299 301 302 303 305 307 310 311 312 313 313 313 313 313 314 315 317 318 319 321 322 323 323 323 323 323 323 323 322 322 321 321 321 320 320 321 321 321 320 320 320 320 320 321 322 322 322 323 322 322 320 319 318
215 215 215 216 218 222 227 237 250 266 280 288 292 296 297 299 301 302 302 303 305 307 309 310 310 311 312 312 313 314 316 317 319 320 322 323 324 324 324 324 324 324 324 323 323 322 322 322 321 321 321 321 321 320 320 320 320 320 321 322 322 323 322 322 321 320 319 318 318
215 215 215 216 220 224 232 243 258 273 285 291 295 297 299 300 301 301 302 302 304 306 308 308 309 310 311 312 314 315 317 319 321 322 324 325 325 325 325 325 325 325 324 324 323 323 322 322 322 322 321 321 320 320 320 321 321 322 322 323 323 322 321 320 319 319 318 317 317
215 216 216 218 222 229 238 251 266 278 287 292 295 297 299 300 301 301 301 301 303 305 306 307 308 310 311 313 315 317 320 322 324 325 326 326 326 326 326 326 325 325 325 324 324 323 323 323 323 322 322 321 321 321 321 322 323 323 323 323 322 321 320 319 318 317 317 316 316
216 217 218 221 226 234 245 259 271 281 287 291 294 297 299 300 300 300 300 300 302 304 306 307 309 310 312 315 318 320 323 324 326 327 327 328 328 327 326 326 326 325 325 324 324 324 324 324 323 323 322 322 322 322 323 324 324 323 323 322 321 319 318 317 316 316 316 316 316
217 218 220 224 231 240 252 265 274 281 287 291 295 298 299 299 298 298 298 299 302 304 307 308 310 312 315 318 320 323 325 327 328 328 329 328 328 327 327 326 326 326 325 325 325 324 324 324 324 323 323 323 323 324 325 324 324 323 321 320 319 317 316 316 315 315 315 316 317
218 220 222 228 235 246 258 267 275 281 288 292 296 297 298 297 297 296 297 300 303 306 309 310 313 315 318 321 324 326 328 329 329 330 329 329 329 328 327 327 326 326 326 326 325 325 325 325 324 324 325 325 326 326 325 324 323 321 320 318 317 316 315 315 315 315 316 317 317
220 222 225 231 240 251 261 269 276 283 289 294 296 296 295 295 294 296 298 302 305 308 311 314 317 320 323 325 327 329 330 330 331 331 330 330 329 329 328 327 327 327 327 327 327 326 326 326 326 326 327 327 327 326 324 323 321 319 318 317 316 315 315 315 315 316 316 317 318
223 225 229 235 245 254 263 269 276 285 290 294 294 293 292 292 293 296 300 304 307 310 313 317 320 324 327 329 330 331 331 331 331 332 331 331 330 329 329 328 328 328 328 328 328 328 328 328 328 328 328 328 326 324 323 321 320 318 317 316 315 315 315 315 316 316 317 317 318
225 228 232 240 248 256 263 270 278 285 289 291 290 289 288 290 293 298 302 305 308 312 316 320 324 327 330 331 332 332 332 332 332 332 332 332 331 331 330 329 329 329 329 329 330 330 329 329 328 328 328 327 325 323 321 319 318 317 316 316 315 315 315 316 316 317 317 317 317
227 230 236 244 251 258 264 271 278 283 286 286 285 284 285 288 294 299 302 306 310 314 319 323 327 330 332 333 334 334 334 333 334 333 333 333 333 332 331 331 330 330 330 330 330 330 330 329 329 328 327 326 324 321 319 318 317 316 316 316 315 315 316 316 317 317 317 317 316
229 234 240 247 253 259 264 271 277 281 282 281 280 280 283 289 295 299 302 306 312 317 322 327 330 332 334 335 335 335 335 335 335 335 335 334 334 333 333 332 332 331 331 331 330 330 329 328 328 327 326 324 322 320 318 317 316 316 316 315 315 316 316 317 317 317 317 316 316
232 237 242 248 253 259 265 272 277 279 278 276 275 278 284 290 296 300 303 308 314 320 325 329 332 334 335 336 337 337 337 337 336 336 335 335 335 334 334 333 332 332 331 331 330 329 328 327 327 327 325 323 321 319 317 317 316 316 315 315 315 316 317 317 318 317 317 315 315
235 239 244 249 254 260 267 273 275 275 273 271 274 279 286 292 296 301 305 311 317 323 328 332 334 336 337 338 339 339 339 338 338 337 336 336 335 335 334 333 333 332 331 331 330 329 328 328 327 326 325 323 320 318 317 316 316 315 315 315 316 317 318 318 318 317 316 314 314
237 240 244 249 256 263 269 273 272 270 268 269 274 281 288 293 297 302 307 314 320 326 330 334 336 337 338 340 341 341 341 340 338 337 337 336 335 335 334 333 333 332 331 330 329 329 329 328 327 326 324 323 321 319 317 316 316 315 316 317 318 319 319 319 317 316 314 314 314
236 240 244 251 259 265 269 270 268 265 265 269 276 283 289 294 298 304 311 318 324 329 332 335 337 339 340 341 342 342 341 340 339 338 337 336 336 335 334 333 333 332 331 330 330 329 329 328 327 326 325 324 322 320 318 316 316 317 318 319 320 320 320 318 316 314 314 315 316
234 239 246 254 261 266 267 265 262 261 263 269 278 285 290 295 301 307 315 322 327 331 333 336 338 339 341 342 342 342 342 341 340 339 337 337 336 335 334 333 332 331 331 331 330 330 329 328 327 326 325 325 323 321 318 317 318 319 320 321 321 321 319 317 315 314 315 317 317
233 239 247 255 261 263 262 258 256 257 262 270 279 285 291 296 304 311 318 324 328 332 334 337 338 340 341 342 343 343 342 341 340 339 338 337 336 335 334 333 333 332 332 331 331 331 330 329 328 327 327 326 324 321 320 320 321 322 323 322 321 319 317 316 315 316 316 317 317
233 241 250 256 258 257 254 251 250 254 263 273 280 286 293 299 307 314 321 325 329 332 336 338 340 341 342 343 343 343 342 342 341 339 338 336 335 334 333 333 333 333 332 332 331 331 330 330 329 329 329 328 325 322 322 322 323 323 322 321 319 317 316 315 315 316 316 316 316
235 243 250 254 253 250 246 244 247 254 265 275 282 289 296 303 310 316 321 326 330 334 337 339 341 342 343 343 343 343 342 341 341 339 338 336 334 334 333 333 333 333 333 332 332 331 331 331 331 332 331 329 326 324 324 324 324 323 321 318 317 315 315 314 315 315 315 316 317
238 246 250 250 246 242 239 240 246 256 267 277 285 292 299 307 312 318 322 326 330 334 337 340 342 343 343 343 343 343 342 341 340 339 337 336 334 333 333 333 334 334 334 333 332 332 332 333 334 335 333 331 328 326 325 324 323 321 319 317 316 315 315 315 315 315 316 318 322
242 246 246 243 238 235 234 239 248 260 271 279 288 296 303 310 315 319 322 326 330 334 337 340 341 342 342 342 343 343 342 341 340 339 337 335 334 333 333 333 334 334 334 334 333 333 334 335 337 337 335 332 329 326 325 324 323 321 319 317 316 316 316 317 317 317 319 322 325
242 243 241 236 231 230 234 242 254 265 275 283 291 299 306 312 317 320 324 328 332 335 337 339 341 341 341 342 342 343 342 341 340 338 336 335 334 333 333 333 334 335 335 334 334 335 336 338 339 338 336 332 329 327 326 325 324 322 320 319 318 317 318 319 319 319 321 324 327
240 238 234 229 227 230 237 247 259 270 280 288 296 303 308 313 318 322 327 331 334 336 338 339 340 341 341 341 341 342 342 341 340 338 336 335 334 334 333 333 334 335 335 335 336 337 338 340 340 339 336 332 330 329 328 327 325 324 322 320 319 319 319 319 320 321 322 325 328
238 235 230 226 227 233 242 254 264 275 284 293 300 305 310 315 320 325 329 333 336 337 338 339 340 341 341 341 341 341 341 341 340 337 336 334 334 334 334 334 334 335 336 336 337 339 340 341 341 338 335 333 331 330 329 328 326 324 322 321 320 320 320 320 321 322 323 325 328
235 232 228 226 230 238 248 260 271 280 289 297 303 308 313 318 323 327 331 335 337 338 338 339 340 340 341 341 340 340 340 340 339 337 336 335 334 334 334 334 335 335 337 338 339 340 341 341 340 338 335 334 332 330 329 328 326 324 323 322 322 321 321 321 322 323 324 327 329
233 229 226 227 233 242 254 266 276 286 294 300 306 311 315 320 325 329 333 335 337 337 338 338 339 340 340 340 339 339 338 338 338 337 336 335 335 335 335 335 335 336 338 339 340 341 341 340 339 337 335 333 331 330 329 329 326 324 322 322 322 322 322 322 324 325 327 329 330
Height
1485 1486 1486 1487 1488 1488 1489 1489 1489 1490 1490 1490 1490 1490 1490 1490 1490 1490 1490 1489 1489 1489 1489 1488 1488 1487 1487 1486 1486 1485 1484 1484 1483 1482 1481 1480 1479 1478 1477 1476 1476 1475 1474 1473 1472 1471 1470 1470 1469 1468 1467 1466 1464 1464 1462 1461 1460 1459 1457 1456 1455 1454 1453 1451 1450 1449 1448 1447 1446
1485 1485 1486 1487 1487 1488 1488 1489 1489 1489 1489 1489 1490 1490 1490 1489 1489 1489 1489 1489 1489 1488 1488 1487 1487 1487 1486 1485 1485 1484 1484 1483 1482 1481 1480 1479 1478 1477 1476 1476 1475 1474 1473 1472 1471 1470 1469 1469 1467 1466 1465 1464 1463 1462 1461 1459 1458 1457 1456 1454 1454 1452 1451 1450 1449 1448 1446 1445 1444
1484 1485 1485 1486 1487 1487 1488 1488 1488 1489 1489 1489 1489 1489 1489 1489 1489 1489 1489 1488 1488 1488 1487 1487 1486 1486 1485 1485 1484 1484 1483 1482 1481 1480 1479 1478 1477 1476 1475 1475 1474 1473 1472 1471 1470 1469 1468 1467 1466 1465 1464 1463 1461 1460 1459 1458 1457 1455 1454 1453 1452 1451 1449 1448 1447 1446 1445 1444 1442
1484 1484 1485 1486 1486 1487 1487 1488 1488 1488 1489 1489 1489 1489 1489 1489 1488 1488 1488 1488 1487 1487 1487 1486 1486 1485 1485 1484 1484 1483 1482 1481 1480 1479 1478 1477 1476 1476 1475 1474 1473 1472 1471 1470 1469 1468 1467 1466 1465 1464 1462 1461 1460 1459 1458 1456 1455 1454 1453 1452 1451 1449 1448 1447 1446 1444 1443 1442 1441
1483 1484 1485 1485 1486 1486 1487 1487 1487 1488 1488 1488 1488 1488 1488 1488 1488 1487 1487 1487 1486 1486 1486 1485 1485 1484 1484 1484 1483 1482 1481 1480 1479 1478 1477 1477 1476 1475 1474 1473 1472 1471 1470 1469 1468 1467 1466 1464 1463 1462 1461 1459 1459 1457 1456 1455 1454 1453 1451 1450 1449 1448 1447 1445 1444 1443 1442 1440 1439
1483 1484 1484 1485 1485 1486 1486 1486 1487 1487 1487 1487 1487 1487 1487 1487 1487 1487 1486 1486 1486 1485 1485 1485 1484 1484 1483 1483 1482 1481 1480 1479 1478 1477 1476 1476 1475 1474 1473 1472 1471 1470 1469 1468 1467 1465 1464 1463 1462 1461 1459 1458 1457 1456 1455 1454 1452 1451 1450 1449 1448 1447 1445 1444 1443 1441 1440 1439 1437
1482 1483 1484 1484 1484 1485 1485 1486 1486 1486 1486 1486 1486 1486 1486 1486 1486 1486 1485 1485 1485 1485 1484 1484 1484 1483 1482 1482 1481 1480 1479 1478 1477 1476 1475 1475 1474 1473 1472 1471 1470 1469 1468 1466 1465 1464 1463 1462 1460 1459 1458 1457 1456 1454 1453 1452 1451 1449 1448 1447 1446 1445 1444 1442 1441 1439 1438 1437 1435
1482 1483 1483 1484 1484 1484 1485 1485 1485 1486 1486 1486 1485 1485 1485 1485 1485 1485 1485 1484 1484 1484 1484 1483 1483 1482 1481 1481 1480 1479 1478 1477 1476 1475 1474 1474 1473 1472 1471 1470 1469 1468 1466 1465 1464 1462 1461 1460 1459 1458 1456 1455 1454 1453 1452 1451 1449 1448 1447 1445 1444 1443 1442 1441 1439 1438 1436 1435 1434
1481 1482 1482 1483 1483 1484 1484 1484 1485 1485 1485 1485 1485 1484 1484 1484 1484 1484 1484 1484 1484 1483 1483 1482 1482 1481 1480 1479 1479 1478 1477 1476 1475 1474 1473 1473 1472 1471 1470 1469 1468 1466 1465 1464 1462 1461 1460 1459 1458 1456 1455 1454 1453 1451 1450 1449 1448 1446 1445 1444 1442 1441 1440 1439 1438 1436 1434 1433 1432
1480 1481 1482 1482 1483 1483 1484 1484 1484 1484 1484 1484 1484 1484 1484 1484 1484 1484 1483 1483 1483 1482 1482 1481 1481 1480 1479 1479 1478 1477 1476 1475 1474 1473 1472 1471 1470 1469 1468 1467 1466 1465 1463 1462 1461 1459 1458 1457 1456 1455 1454 1453 1451 1450 1449 1448 1446 1445 1443 1442 1440 1439 1438 1437 1436 1434 1433 1431 1430
1480 1480 1481 1482 1482 1483 1483 1483 1484 1484 1484 1484 1484 1484 1484 1483 1483 1483 1483 1482 1482 1481 1481 1480 1480 1479 1478 1477 1476 1475 1475 1474 1473 1472 1471 1470 1469 1468 1467 1466 1464 1463 1462 1460 1459 1458 1457 1455 1454 1453 1452 1451 1450 1449 1447 1446 1444 1443 1441 1440 1439 1437 1436 1435 1434 1433 1431 1430 1429
1479 1480 1480 1481 1481 1482 1482 1482 1483 1483 1483 1483 1483 1483 1483 1483 1482 1482 1482 1481 1481 1480 1480 1479 1479 1478 1477 1476 1475 1474 1474 1473 1472 1471 1470 1469 1468 1467 1466 1464 1463 1462 1460 1459 1458 1457 1455 1454 1453 1452 1450 1449 1448 1447 1445 1444 1443 1441 1439 1438 1437 1436 1434 1433 1432 1431 1429 1428 1427
1479 1479 1480 1480 1480 1481 1481 1482 1482 1482 1482 1482 1482 1482 1482 1482 1482 1481 1481 1480 1480 1479 1479 1478 1478 1477 1476 1475 1474 1474 1473 1472 1471 1470 1469 1468 1467 1465 1464 1463 1462 1460 1459 1458 1456 1455 1454 1453 1451 1450 1449 1447 1446 1445 1444 1442 1441 1439 1438 1436 1435 1434 1433 1431 1430 1429 1428 1426 1425
1478 1479 1479 1479 1480 1480 1480 1481 1481 1481 1481 1481 1481 1481 1481 1481 1481 1480 1480 1479 1479 1478 1478 1477 1476 1476 1475 1474 1473 1472 1471 1471 1470 1469 1468 1467 1465 1464 1463 1461 1460 1459 1458 1456 1455 1454 1453 1451 1450 1449 1447 1446 1444 1443 1442 1441 1439 1438 1436 1435 1433 1432 1431 1429 1429 1427 1426 1425 1424
1477 1478 1478 1479 1479 1479 1480 1480 1480 1480 1481 1481 1481 1481 1480 1480 1480 1479 1479 1479 1478 1478 1477 1476 1475 1474 1474 1473 1472 1471 1470 1469 1469 1468 1466 1465 1464 1463 1461 1460 1459 1457 1456 1455 1454 1453 1451 1450 1448 1447 1445 1444 1443 1442 1440 1439 1438 1436 1435 1434 1432 1431 1429 1428 1427 1426 1424 1423 1422
1476 1477 1477 1478 1478 1479 1479 1479 1480 1480 1480 1480 1480 1480 1479 1479 1479 1479 1478 1478 1477 1476 1476 1475 1474 1474 1473 1472 1471 1470 1469 1468 1467 1466 1465 1464 1463 1461 1460 1459 1457 1456 1454 1453 1452 1451 1450 1449 1447 1446 1444 1443 1441 1440 1439 1437 1436 1435 1434 1432 1431 1429 1428 1427 1425 1424 1423 1422 1420
1476 1476 1477 1477 1478 1478 1479 1479 1479 1479 1479 1479 1479 1479 1479 1479 1478 1478 1477 1477 1476 1476 1475 1474 1474 1473 1472 1471 1470 1469 1468 1467 1466 1465 1464 1462 1461 1459 1458 1457 1456 1454 1453 1452 1450 1449 1448 1447 1446 1444 1443 1441 1440 1438 1437 1436 1434 1433 1432 1430 1429 1428 1427 1425 1424 1423 1421 1420 1419
1475 1476 1476 1477 1477 1478 1478 1478 1478 1478 1478 1478 1478 1478 1478 1478 1477 1477 1476 1476 1475 1475 1474 1473 1472 1472 1471 1470 1469 1468 1467 1466 1465 1464 1462 1461 1459 1458 1457 1456 1454 1453 1452 1450 1449 1448 1446 1445 1444 1443 1441 1440 1438 1437 1435 1434 1433 1431 1430 1429 1428 1426 1425 1424 1423 1421 1420 1419 1417
1474 1475 1476 1476 1477 1477 1477 1478 1478 1478 1478 1478 1477 1477 1477 1477 1476 1476 1475 1475 1474 1474 1473 1472 1471 1471 1470 1469 1468 1467 1466 1464 1464 1462 1461 1460 1458 1457 1456 1454 1453 1452 1450 1449 1448 1446 1445 1444 1442 1441 1439 1438 1436 1435 1434 1432 1431 1430 1429 1427 1426 1425 1424 1423 1421 1420 1419 1417 1416
1474 1475 1475 1476 1476 1477 1477 1477 1477 1477 1477 1477 1476 1476 1476 1475 1475 1475 1474 1474 1473 1473 1472 1471 1470 1469 1469 1468 1467 1466 1464 1463 1462 1461 1460 1459 1457 1456 1454 1453 1452 1450 1449 1448 1446 1445 1444 1442 1440 1439 1438 1436 1434 1433 1432 1431 1429 1428 1427 1426 1425 1424 1422 1421 1420 1419 1417 1416 1414
1474 1474 1475 1475 1476 1476 1476 1476 1476 1476 1476 1476 1476 1475 1475 1474 1474 1474 1473 1473 1472 1471 1471 1470 1469 1469 1468 1466 1465 1464 1463 1462 1461 1460 1459 1457 1456 1454 1453 1452 1450 1449 1448 1446 1445 1444 1442 1440 1439 1437 1436 1434 1433 1431 1430 1429 1428 1427 1425 1424 1423 1422 1421 1419 1418 1417 1415 1414 1413
1474 1474 1474 1475 1475 1475 1475 1475 1475 1475 1475 1475 1475 1474 1474 1474 1473 1473 1472 1472 1471 1470 1470 1469 1468 1467 1466 1465 1464 1463 1462 1461 1460 1459 1458 1456 1455 1454 1452 1451 1449 1448 1446 1445 1443 1442 1440 1439 1437 1435 1434 1433 1431 1430 1429 1428 1426 1425 1424 1422 1421 1420 1419 1418 1417 1415 1414 1413 1411
1473 1474 1474 1474 1474 1475 1475 1475 1474 1474 1474 1474 1474 1473 1473 1473 1472 1472 1471 1471 1470 1469 1469 1468 1467 1466 1465 1464 1463 1462 1461 1460 1459 1458 1457 1455 1454 1452 1451 1449 1448 1446 1445 1443 1442 1440 1438 1436 1435 1434 1432 1431 1430 1429 1427 1426 1425 1423 1422 1421 1419 1418 1417 1416 1415 1414 1412 1411 1410
1473 1473 1474 1474 1474 1474 1474 1474 1474 1474 1473 1473 1473 1472 1472 1472 1471 1471 1470 1470 1469 1469 1468 1467 1466 1465 1464 1463 1462 1461 1460 1459 1458 1456 1455 1454 1453 1451 1450 1448 1447 1445 1444 1442 1440 1439 1437 1435 1434 1432 1431 1429 1428 1427 1426 1424 1423 1422 1420 1419 1418 1416 1415 1414 1413 1412 1411 1409 1408
1472 1473 1473 1473 1473 1473 1473 1473 1473 1473 1472 1472 1472 1471 1471 1471 1470 1470 1469 1469 1468 1468 1467 1466 1465 1464 1463 1462 1461 1460 1459 1458 1456 1455 1454 1453 1451 1450 1449 1447 1445 1444 1442 1440 1439 1438 1436 1435 1433 1431 1429 1428 1427 1425 1424 1423 1422 1420 1419 1417 1416 1414 1413 1412 1411 1410 1409 1408 1406
1472 1472 1472 1472 1473 1473 1472 1472 1472 1472 1471 1471 1471 1470 1470 1470 1469 1469 1469 1468 1467 1467 1466 1465 1464 1463 1462 1461 1460 1459 1458 1456 1455 1454 1452 1451 1450 1449 1447 1445 1444 1442 1441 1439 1438 1436 1435 1434 1432 1431 1429 1427 1425 1424 1422 1421 1420 1419 1417 1416 1414 1413 1412 1410 1409 1408 1407 1406 1405
1471 1471 1472 1472 1472 1472 1472 1471 1471 1471 1470 1470 1470 1469 1469 1469 1469 1468 1468 1467 1466 1466 1465 1464 1463 1462 1461 1460 1459 1458 1457 1455 1454 1453 1451 1450 1449 1447 1445 1444 1442 1441 1439 1438 1436 1435 1434 1432 1431 1429 1428 1426 1424 1423 1421 1419 1418 1417 1416 1414 1413 1412 1411 1409 1408 1407 1405 1404 1403
1470 1471 1471 1471 1471 1471 1471 1470 1470 1470 1469 1469 1469 1469 1469 1468 1468 1467 1467 1466 1465 1465 1464 1463 1462 1461 1460 1459 1458 1457 1455 1454 1453 1451 1450 1449 1447 1446 1444 1443 1441 1439 1438 1437 1435 1434 1432 1431 1429 1428 1426 1425 1423 1421 1419 1418 1416 1415 1414 1413 1412 1410 1409 1408 1407 1405 1404 1403 1401
1470 1470 1470 1470 1470 1470 1470 1469 1469 1469 1469 1469 1468 1468 1468 1467 1467 1466 1466 1465 1464 1464 1463 1462 1461 1460 1459 1458 1457 1456 1454 1453 1452 1450 1449 1447 1446 1444 1443 1441 1440 1438 1437 1435 1434 1432 1431 1429 1428 1426 1425 1423 1421 1419 1418 1416 1415 1414 1412 1411 1410 1409 1408 1407 1405 1404 1403 1401 1400
1469 1469 1469 1469 1469 1469 1469 1469 1469 1468 1468 1468 1468 1467 1467 1466 1466 1466 1465 1464 1464 1463 1462 1461 1460 1459 1458 1457 1456 1454 1453 1452 1450 1449 1447 1446 1444 1443 1441 1440 1438 1437 1435 1434 1432 1431 1429 1428 1426 1424 1423 1422 1420 1418 1417 1415 1414 1412 1411 1410 1409 1408 1407 1405 1404 1403 1401 1400 1399
1468 1469 1469 1469 1468 1468 1468 1468 1468 1468 1467 1467 1467 1466 1466 1466 1465 1465 1464 1463 1463 1462 1461 1460 1459 1459 1457 1456 1455 1454 1452 1451 1449 1448 1446 1444 1443 1441 1440 1439 1437 1435 1434 1432 1431 1429 1428 1426 1424 1423 1421 1420 1419 1417 1415 1414 1413 1411 1410 1409 1408 1407 1405 1404 1403 1401 1400 1399 1397
1468 1468 1468 1468 1468 1467 1467 1467 1467 1467 1466 1466 1466 1466 1465 1465 1464 1464 1463 1463 1462 1461 1460 1459 1459 1457 1456 1455 1454 1452 1451 1449 1448 1446 1445 1443 1442 1440 1439 1437 1436 1434 1432 1431 1429 1428 1426 1424 1423 1421 1420 1419 1417 1415 1414 1413 1411 1410 1409 1408 1407 1405 1404 1403 1401 1400 1399 1397 1396
1467 1467 1467 1467 1467 1467 1466 1466 1466 1466 1466 1465 1465 1465 1464 1464 1463 1463 1462 1462 1461 1460 1459 1458 1457 1456 1455 1454 1452 1451 1449 1448 1447 1445 1444 1442 1440 1439 1437 1436 1434 1433 1431 1429 1428 1426 1424 1423 1421 1420 1418 1417 1415 1414 1412 1411 1410 1409 1408 1407 1405 1404 1403 1402 1400 1399 1397 1396 1394
1466 1466 1466 1466 1466 1466 1466 1465 1465 1465 1465 1465 1464 1464 1464 1463 1463 1462 1461 1461 1460 1459 1458 1457 1456 1455 1454 1452 1451 1449 1448 1447 1445 1444 1442 1440 1439 1438 1436 1434 1433 1431 1429 1428 1426 1424 1423 1421 1420 1418 1417 1415 1414 1412 1411 1409 1409 1408 1406 1405 1404 1403 1402 1400 1399 1398 1396 1395 1393
1465 1465 1465 1465 1465 1465 1465 1465 1464 1464 1464 1464 1464 1463 1463 1462 1462 1461 1460 1460 1459 1458 1457 1456 1455 1454 1453 1451 1450 1449 1447 1445 1444 1442 1441 1439 1438 1436 1434 1433 1432 1430 1428 1427 1425 1423 1421 1420 1418 1417 1415 1414 1412 1411 1409 1408 1407 1406 1405 1404 1402 1401 1400 1399 1397 1396 1395 1393 1392
1464 1465 1465 1464 1464 1464 1464 1464 1464 1464 1464 1463 1463 1462 1462 1461 1461 1460 1459 1459 1458 1457 1456 1455 1454 1453 1451 1450 1449 1447 1446 1444 1442 1441 1439 1438 1436 1434 1433 1432 1430 1429 1427 1425 1424 1422 1420 1419 1417 1415 1414 1413 1411 1409 1408 1407 1406 1404 1403 1402 1401 1399 1398 1397 1395 1394 1393 1392 1390
1464 1464 1464 1464 1464 1464 1464 1464 1463 1463 1463 1462 1462 1462 1461 1461 1460 1459 1459 1458 1457 1456 1455 1454 1453 1451 1450 1449 1448 1446 1444 1443 1441 1439 1438 1436 1435 1433 1431 1430 1429 1427 1425 1424 1422 1420 1419 1417 1416 1414 1413 1411 1409 1408 1406 1405 1404 1403 1402 1400 1399 1398 1397 1395 1394 1392 1391 1390 1389
1463 1463 1463 1463 1463 1463 1463 1463 1463 1462 1462 1462 1461 1461 1460 1460 1459 1458 1458 1457 1456 1455 1454 1453 1451 1450 1449 1447 1446 1445 1444 1442 1440 1439 1437 1435 1434 1432 1430 1428 1427 1425 1424 1422 1420 1419 1417 1416 1415 1414 1412 1410 1409 1407 1405 1404 1403 1401 1400 1399 1397 1396 1395 1394 1392 1390 1389 1388 1387
1463 1463 1462 1462 1462 1462 1462 1462 1462 1462 1461 1461 1460 1460 1459 1459 1458 1457 1456 1455 1454 1453 1452 1451 1450 1449 1447 1446 1444 1443 1442 1441 1439 1438 1436 1434 1432 1431 1429 1427 1425 1424 1422 1421 1419 1418 1416 1415 1414 1413 1411 1409 1408 1406 1404 1403 1401 1400 1399 1397 1396 1394 1393 1392 1391 1389 1387 1386 1385
1462 1462 1462 1462 1462 1462 1462 1461 1461 1461 1460 1460 1460 1459 1459 1458 1457 1456 1455 1454 1453 1452 1451 1450 1449 1448 1446 1444 1443 1442 1441 1439 1438 1437 1435 1433 1431 1429 1428 1426 1424 1423 1421 1419 1418 1416 1415 1414 1413 1411 1410 1409 1407 1405 1404 1402 1400 1399 1398 1396 1395 1393 1391 1390 1389 1387 1385 1384 1383
1461 1461 1461 1461 1461 1461 1461 1461 1460 1460 1460 1459 1459 1459 1458 1457 1456 1455 1454 1453 1452 1451 1450 1449 1448 1446 1445 1443 1442 1440 1439 1438 1437 1435 1434 1432 1430 1428 1426 1424 1423 1421 1419 1418 1416 1415 1414 1413 1412 1410 1409 1408 1406 1404 1403 1401 1399 1398 1396 1395 1394 1392 1390 1388 1386 1385 1384 1383 1381